Regional Weather Roundup
Issued by NWS

Home | Current Version | Previous Version | Graphics & Text | Print | Product List | Glossary Off
Versions: 1 2 3 4 5 6 7 8 9 10 11 12 13 14 15 16 17 18 19 20 21 22 23 24 25 26 27 28 29 30 31 32 33 34 35 36 37 38 39 40 41 42 43 44 45 46 47 48 49 50

000
ASUS43 KMKX 020100
RWRWI

WISCONSIN REGIONAL WEATHER ROUNDUP
NATIONAL WEATHER SERVICE MILWAUKEE/SULLIVAN WI
800 PM CDT WED OCT 01 2014

NOTE: "FAIR" INDICATES FEW OR NO CLOUDS BELOW 12,000 FEET WITH NO
SIGNIFICANT WEATHER AND/OR OBSTRUCTIONS TO VISIBILITY.

WIZ001-002-006>008-014>016-023>028-020200-
NORTHWEST WISCONSIN

CITY           SKY/WX    TMP DP  RH WIND       PRES   REMARKS
SUPERIOR ARPT  RAIN      52  51  97 CALM      29.81R
ASHLAND        CLOUDY    52  51  97 CALM      29.84R
HAYWARD        CLOUDY    54  53  97 S7        29.84R FOG
SIREN          CLOUDY    53  52  97 S6        29.81F FOG
CUMBERLAND     CLOUDY    52  50  93 S5        29.84S FOG
RICE LAKE      CLOUDY    54  52  95 SE5       29.86R FOG
CHETEK         CLOUDY    54  53  99 CALM      29.85R FOG
LADYSMITH      CLOUDY    55  54  94 SE5       29.87R FOG
EAU CLAIRE     NOT AVBL
MENOMONIE      CLOUDY    56  55  96 CALM      29.84R FOG
NEW RICHMOND   CLOUDY    55  55 100 SE5       29.83R FOG
OSCEOLA        CLOUDY    55  55 100 SE5       29.84S FOG
$$

WIZ003>005-009-010-017-018-020200-
NORTH CENTRAL WISCONSIN

CITY           SKY/WX    TMP DP  RH WIND       PRES   REMARKS
MANITOWISH WTR RAIN      53  53 100 S5        29.86R
ARBOR VITAE    CLOUDY    57  55  93 S6        29.86R FOG
WOODRUFF       CLOUDY    57  55  93 S6        29.86R FOG
RHINELANDER    LGT RAIN  55  52  89 S5        29.89R
EAGLE RIVER    LGT RAIN  54  49  84 S8        29.87R
LAND O LAKES   CLOUDY    54  51  89 S7        29.87S
PHILLIPS       CLOUDY    54  53  96 S6        29.86R
TOMAHAWK       CLOUDY    55  52  92 CALM      29.88R
MEDFORD        CLOUDY    55  53  91 SE7       29.86S
MERRILL        LGT RAIN  57  54  89 S7        29.87S
$$

WIZ029-030-035-036-043>047-020200-
CENTRAL WISCONSIN

CITY           SKY/WX    TMP DP  RH WIND       PRES   REMARKS
WAUSAU         CLOUDY    58  52  80 SE7       29.87R
MOSINEE        NOT AVBL
MARSHFIELD     LGT RAIN  58  54  86 SE6       29.86S
STEVENS POINT  CLOUDY    57  51  79 SE7       29.89R
WAUPACA        CLOUDY    60  52  74 SE10      29.90S
WAUTOMA        NOT AVBL
WISC RAPIDS    CLOUDY    60  55  83 E6        29.88S
CAMP DOUGLAS   NOT AVBL
$$

WIZ011>013-019>022-031-037>040-048>050-020200-
NORTHEAST WISCONSIN

CITY           SKY/WX    TMP DP  RH WIND       PRES   REMARKS
ANTIGO         CLOUDY    54  51  91 SE13      29.90S
SHAWANO        CLOUDY    57  53  84 SE8       29.92S
OCONTO         CLOUDY    55  53  92 S7        29.94R
STURGEON BAY   NOT AVBL
GREEN BAY      CLOUDY    56  51  84 SE12      29.94R
MANITOWOC      NOT AVBL
APPLETON       CLOUDY    57  50  77 SE16      29.92R
CLINTONVILLE   CLOUDY    55  52  88 SE6       29.91R
OSHKOSH        CLOUDY    58  52  80 SE10      29.91R
$$

WIZ032>034-041-042-053>061-020200-
SOUTHWEST WISCONSIN

CITY           SKY/WX    TMP DP  RH WIND       PRES   REMARKS
LA CROSSE      CLOUDY    62  57  83 NW3       29.81S
SPARTA         CLOUDY    61  55  82 CALM      29.84S
VIROQUA        CLOUDY    63  55  77 SE5       29.84R
BOSCOBEL       CLOUDY    67  59  75 NE3       29.83R
PRAIRIE DU CHI CLOUDY    67  56  70 CALM      29.81S
PLATTEVILLE    CLOUDY    68  59  72 SE8       29.85R
$$

WIZ056-057-062-063-064-067-068-020200-
SOUTH CENTRAL WISCONSIN

CITY           SKY/WX    TMP DP  RH WIND       PRES   REMARKS
REEDSBURG      CLOUDY    65  56  72 CALM      29.85R
BARABOO/DELLS  CLOUDY    64  53  66 SE6       29.86R
LONE ROCK      NOT AVBL
MINERAL POINT  CLOUDY    68  55  64 SE5       29.85S
MADISON        CLOUDY    64  53  67 SE10      29.87S
MIDDLETON      CLOUDY    67  54  63 SE9       29.87S
WATERTOWN      CLOUDY    59  54  82 SE5       29.90R
MONROE         CLOUDY    64  55  72 E8        29.86S
JANESVILLE     CLOUDY    64  54  68 E7        29.87F
$$

WIZ051-052-058>065-066-070>072-020200-
SOUTHEAST WISCONSIN

CITY           SKY/WX    TMP DP  RH WIND       PRES   REMARKS
MILWAUKEE      CLOUDY    60  55  83 SE7       29.94R
WAUKESHA       CLOUDY    57  52  82 E9        29.93S
MILWAUKEE/TIMM MOCLDY    59  52  77 SE7       29.93F
RACINE         MOCLDY    61  55  81 SE10      29.94S
BURLINGTON     CLOUDY    58  52  80 E6        29.91S
KENOSHA        NOT AVBL
FOND DU LAC    CLOUDY    57  51  80 S10       29.91S
SHEBOYGAN      CLOUDY    56  52  86 SE5       29.94R
WEST BEND      CLOUDY    55  50  82 SE8       29.93S
JUNEAU         CLOUDY    59  52  77 SE9       29.92R
$$

LSZ147-162-020200-
LAKE SUPERIOR

STATION/POSITION TIME  TEMP    WIND        PRES    WAVE
                       AIR SEA DIR/SP/G            HT/PER
                 (UTC) (F)     (DEG/KT/KT) (MB)    (FT/S)
W MID LAKE BUOY  2350   49 50   60/  8/ 12 1009.7F   1
DEVILS ISLAND    0000   51     110/  4/  5 1010.1R
SAXON HARBOR     0000   53        CALM     1009.5
$$

LMZ867-665-643>646-020200-
LAKE MICHIGAN

STATION/POSITION TIME  TEMP    WIND        PRES    WAVE
                       AIR SEA DIR/SP/G            HT/PER
                 (UTC) (F)     (DEG/KT/KT) (MB)    (FT/S)
CHAMBERS ISLAND  0000   56     130/  4/  9 1013.9S
N MID LAKE BUOY  2350   56 58  200/  6/  6 1014.7S   1/ 3
NORTHPORT PIER   0000   56     160/  8/ 10 1013.9F
KEWAUNEE LAKESHO 0000   55     160/ 15/ 17 1013.0R
SHEBOYGAN LAKESH 0000   56 58  130/ 15/ 16 1013.8S
PORT WASHINGTON  0000   59     150/  9/ 11 1014.2R
MILWAUKEE LAKESH 0000   59     140/  8/  9   N/A
S MID LAKE BUOY  2350   63 62  120/ 12/ 14 1013.7R   2/ 3
KENOSHA   LAKESH 0000   61     120/ 12/ 13 1012.9S
$$

TC  - TEMPERATURE IN CELSIUS
VSB - VISIBILITY IN STATUTE MILES
WCI - WIND CHILL INDEX
HX  - HEAT INDEX



USA.gov is the U.S. government's official web portal to all federal, state and local government web resources and services.